• Em Portugal
  • Lista de países
  • Para 7 dias
  • Temperatura da água
  • Mapas de satélite
  • Mapa do tempo
  • Widgets de tempo
  • user-avatar
    Iniciar Sessão

    Previsão horária em Orange Walk

    Hoje, 16 Novembro, Sexta-feira

    Tempo Temperatura Precipitação Vento Pressão Humidade
    00:00 +20°C° 0 mm 2 m/s 762 mmHg 89%
    01:00 +19°C° 0 mm 2 m/s 762 mmHg 90%
    02:00 +19°C° 0 mm 2 m/s 762 mmHg 91%
    03:00 +18°C° 0 mm 2 m/s 762 mmHg 91%
    04:00 +18°C° 0 mm 2 m/s 762 mmHg 92%
    05:00 +18°C° 0 mm 2 m/s 762 mmHg 92%
    06:00 +18°C° 0 mm 2 m/s 762 mmHg 92%
    07:00 +20°C° 0 mm 2 m/s 762 mmHg 85%
    08:00 +21°C° 0 mm 3 m/s 762 mmHg 79%
    09:00 +24°C° 0 mm 3 m/s 763 mmHg 72%
    10:00 +26°C° 0 mm 3 m/s 762 mmHg 66%
    11:00 +27°C° 0 mm 3 m/s 762 mmHg 60%
    12:00 +28°C° 0 mm 2 m/s 761 mmHg 55%
    13:00 +29°C° 0 mm 2 m/s 761 mmHg 55%
    14:00 +29°C° 0 mm 2 m/s 760 mmHg 55%
    15:00 +29°C° 0 mm 2 m/s 759 mmHg 56%
    16:00 +27°C° 0 mm 2 m/s 759 mmHg 62%
    17:00 +26°C° 0 mm 1 m/s 760 mmHg 68%
    18:00 +24°C° 0 mm 1 m/s 760 mmHg 74%
    19:00 +24°C° 0 mm 1 m/s 760 mmHg 76%
    20:00 +23°C° 0 mm 2 m/s 761 mmHg 78%
    21:00 +23°C° 0 mm 2 m/s 761 mmHg 80%
    22:00 +21°C° 0 mm 2 m/s 761 mmHg 82%
    23:00 +21°C° 0 mm 2 m/s 761 mmHg 84%

    Amanhã, 17 Novembro, Sábado

    Tempo Temperatura Precipitação Vento Pressão Humidade
    00:00 +20°C° 0 mm 2 m/s 761 mmHg 86%
    01:00 +20°C° 0 mm 2 m/s 761 mmHg 88%
    02:00 +20°C° 0 mm 2 m/s 761 mmHg 89%
    03:00 +19°C° 0 mm 2 m/s 760 mmHg 91%
    04:00 +19°C° 0 mm 2 m/s 761 mmHg 91%
    05:00 +19°C° 0 mm 2 m/s 761 mmHg 90%
    06:00 +19°C° 0 mm 2 m/s 761 mmHg 90%
    07:00 +21°C° 0 mm 2 m/s 761 mmHg 85%
    08:00 +23°C° 0 mm 2 m/s 762 mmHg 80%
    09:00 +25°C° 0 mm 2 m/s 762 mmHg 75%
    10:00 +26°C° 0 mm 3 m/s 762 mmHg 70%
    11:00 +28°C° 0 mm 3 m/s 761 mmHg 64%
    12:00 +30°C° 0 mm 3 m/s 761 mmHg 59%
    13:00 +30°C° 0 mm 3 m/s 760 mmHg 60%
    14:00 +30°C° 0 mm 3 m/s 759 mmHg 61%
    15:00 +30°C° 0 mm 3 m/s 759 mmHg 63%
    16:00 +28°C° 0 mm 2 m/s 759 mmHg 69%
    17:00 +27°C° 0 mm 2 m/s 759 mmHg 76%
    18:00 +25°C° 0 mm 2 m/s 759 mmHg 83%
    19:00 +25°C° 0 mm 2 m/s 760 mmHg 85%
    20:00 +24°C° 0 mm 2 m/s 760 mmHg 87%
    21:00 +23°C° 0 mm 2 m/s 761 mmHg 89%
    22:00 +23°C° 0 mm 2 m/s 760 mmHg 91%
    23:00 +23°C° 0 mm 2 m/s 760 mmHg 92%

    Depois de amanhã, 18 Novembro, Domingo

    Tempo Temperatura Precipitação Vento Pressão Humidade
    00:00 +23°C° 0 mm 2 m/s 760 mmHg 93%
    01:00 +21°C° 0 mm 2 m/s 760 mmHg 94%
    02:00 +21°C° 0 mm 2 m/s 760 mmHg 94%
    03:00 +21°C° 0 mm 2 m/s 759 mmHg 95%
    04:00 +21°C° 0 mm 2 m/s 759 mmHg 95%
    05:00 +20°C° 0 mm 2 m/s 759 mmHg 95%
    06:00 +20°C° 0 mm 2 m/s 760 mmHg 95%
    07:00 +23°C° 0 mm 2 m/s 760 mmHg 88%
    08:00 +25°C° 0 mm 2 m/s 761 mmHg 81%
    09:00 +26°C° 0 mm 2 m/s 761 mmHg 75%
    10:00 +28°C° 0 mm 2 m/s 761 mmHg 72%
    11:00 +29°C° 0 mm 2 m/s 760 mmHg 69%
    12:00 +30°C° 0 mm 2 m/s 760 mmHg 67%
    13:00 +30°C° 0.4 mm 2 m/s 759 mmHg 70%
    14:00 +30°C° 0.4 mm 2 m/s 759 mmHg 73%
    15:00 +30°C° 0.4 mm 2 m/s 758 mmHg 77%
    16:00 +28°C° 0.9 mm 2 m/s 758 mmHg 83%
    17:00 +27°C° 0.9 mm 2 m/s 758 mmHg 90%
    18:00 +25°C° 0.9 mm 2 m/s 759 mmHg 97%
    19:00 +25°C° 0.6 mm 2 m/s 759 mmHg 97%
    20:00 +25°C° 0.6 mm 2 m/s 760 mmHg 97%
    21:00 +24°C° 0.6 mm 2 m/s 760 mmHg 98%
    22:00 +24°C° 0.5 mm 1 m/s 760 mmHg 98%
    23:00 +24°C° 0.5 mm 1 m/s 760 mmHg 98%

    19 Novembro, Segunda-feira

    Tempo Temperatura Precipitação Vento Pressão Humidade
    00:00 +24°C° 0.5 mm 1 m/s 760 mmHg 99%
    01:00 +24°C° 0.4 mm 2 m/s 759 mmHg 99%
    02:00 +24°C° 0.4 mm 2 m/s 759 mmHg 99%
    03:00 +24°C° 0.4 mm 2 m/s 759 mmHg 99%
    04:00 +24°C° 0.2 mm 2 m/s 759 mmHg 99%
    05:00 +24°C° 0.2 mm 2 m/s 759 mmHg 99%
    06:00 +24°C° 0.2 mm 2 m/s 759 mmHg 99%
    07:00 +25°C° 0.2 mm 2 m/s 760 mmHg 98%
    08:00 +25°C° 0.2 mm 2 m/s 760 mmHg 97%
    09:00 +26°C° 0.2 mm 2 m/s 761 mmHg 96%
    10:00 +27°C° 0.3 mm 2 m/s 760 mmHg 91%
    11:00 +28°C° 0.3 mm 2 m/s 760 mmHg 87%
    12:00 +29°C° 0.3 mm 1 m/s 759 mmHg 82%
    13:00 +29°C° 1 mm 1 m/s 759 mmHg 84%
    14:00 +29°C° 1 mm 1 m/s 758 mmHg 87%
    15:00 +29°C° 1 mm 1 m/s 757 mmHg 89%
    16:00 +28°C° 0.8 mm 1 m/s 757 mmHg 91%
    17:00 +27°C° 0.8 mm 1 m/s 758 mmHg 94%
    18:00 +26°C° 0.8 mm 1 m/s 758 mmHg 97%
    19:00 +25°C° 0.1 mm 1 m/s 759 mmHg 97%
    20:00 +25°C° 0.1 mm 1 m/s 759 mmHg 98%
    21:00 +25°C° 0.1 mm 1 m/s 760 mmHg 98%
    22:00 +24°C° 0 mm 1 m/s 759 mmHg 98%
    23:00 +24°C° 0 mm 1 m/s 759 mmHg 99%

    20 Novembro, Terça-feira

    Tempo Temperatura Precipitação Vento Pressão Humidade
    00:00 +24°C° 0 mm 1 m/s 759 mmHg 99%
    01:00 +24°C° 0 mm 1 m/s 758 mmHg 99%
    02:00 +24°C° 0 mm 1 m/s 758 mmHg 99%
    03:00 +24°C° 0 mm 1 m/s 758 mmHg 99%
    04:00 +24°C° 0.1 mm 1 m/s 758 mmHg 99%
    05:00 +24°C° 0.1 mm 1 m/s 758 mmHg 99%
    06:00 +24°C° 0.1 mm 1 m/s 759 mmHg 99%
    07:00 +25°C° 0.1 mm 1 m/s 759 mmHg 96%
    08:00 +26°C° 0.1 mm 1 m/s 760 mmHg 94%
    09:00 +27°C° 0.1 mm 1 m/s 760 mmHg 91%
    10:00 +28°C° 0.6 mm 1 m/s 760 mmHg 89%
    11:00 +29°C° 0.6 mm 1 m/s 759 mmHg 87%
    12:00 +30°C° 0.6 mm 1 m/s 759 mmHg 86%
    13:00 +29°C° 1 mm 1 m/s 758 mmHg 87%
    14:00 +29°C° 1 mm 1 m/s 758 mmHg 89%
    15:00 +29°C° 1 mm 1 m/s 757 mmHg 90%
    16:00 +28°C° 0.4 mm 1 m/s 758 mmHg 92%
    17:00 +27°C° 0.4 mm 1 m/s 758 mmHg 95%
    18:00 +26°C° 0.4 mm 1 m/s 759 mmHg 97%
    19:00 +26°C° 0.1 mm 1 m/s 759 mmHg 98%
    20:00 +25°C° 0.1 mm 1 m/s 760 mmHg 98%
    21:00 +25°C° 0.1 mm 1 m/s 760 mmHg 98%
    22:00 +25°C° 0.2 mm 1 m/s 760 mmHg 99%
    23:00 +25°C° 0.2 mm 1 m/s 760 mmHg 99%

    21 Novembro, Quarta-feira

    Tempo Temperatura Precipitação Vento Pressão Humidade
    00:00 +25°C° 0.2 mm 1 m/s 759 mmHg 99%
    01:00 +25°C° 0.2 mm 1 m/s 759 mmHg 99%
    02:00 +25°C° 0.2 mm 1 m/s 759 mmHg 99%
    03:00 +25°C° 0.2 mm 1 m/s 759 mmHg 99%
    04:00 +25°C° 0.1 mm 1 m/s 759 mmHg 99%
    05:00 +25°C° 0.1 mm 1 m/s 760 mmHg 99%
    06:00 +25°C° 0.1 mm 1 m/s 760 mmHg 99%
    07:00 +26°C° 0.1 mm 1 m/s 761 mmHg 97%
    08:00 +26°C° 0.1 mm 1 m/s 761 mmHg 95%
    09:00 +27°C° 0.1 mm 1 m/s 762 mmHg 93%
    10:00 +28°C° 0.7 mm 1 m/s 761 mmHg 90%
    11:00 +28°C° 0.7 mm 1 m/s 761 mmHg 87%
    12:00 +29°C° 0.7 mm 1 m/s 760 mmHg 84%
    13:00 +29°C° 1.3 mm 2 m/s 760 mmHg 87%
    14:00 +29°C° 1.3 mm 2 m/s 759 mmHg 89%
    15:00 +28°C° 1.3 mm 2 m/s 759 mmHg 92%
    16:00 +27°C° 0.3 mm 2 m/s 759 mmHg 94%
    17:00 +26°C° 0.3 mm 1 m/s 759 mmHg 96%
    18:00 +26°C° 0.3 mm 1 m/s 760 mmHg 98%
    19:00 +25°C° 0.2 mm 1 m/s 760 mmHg 98%
    20:00 +25°C° 0.2 mm 1 m/s 760 mmHg 99%
    21:00 +25°C° 0.2 mm 1 m/s 761 mmHg 99%
    22:00 +25°C° 0.1 mm 1 m/s 760 mmHg 99%
    23:00 +24°C° 0.1 mm 1 m/s 760 mmHg 99%
    Mostrar mais